Lewisburg, WV

11:46 PM EDT on September 19, 2019 (GMT -0400)
Greenbrier Valley

Weather History for KLWB - August, 2019

Change the Weather History Date:

Friday, August 23, 2019

  Actual Average Record
Temperature  
Mean Temperature 72 °F -  
Max Temperature 79 °F 81 °F 91 °F (2007)
Min Temperature 63 °F 58 °F 46 °F (2011)
Cooling Degree Days 6    
Growing Degree Days 22 (Base 50)    
Moisture  
Dew Point 65 °F    
Average Humidity 88    
Maximum Humidity 99    
Minimum Humidity 64    
Precipitation  
Precipitation 0.13 in - - ()
Sea Level Pressure  
Sea Level Pressure 30.09 in    
Wind  
Wind Speed 2 mph (WNW)    
Max Wind Speed 9 mph    
Max Gust Speed -    
Visibility 9 miles    
Events Rain    
Averages and records for this station are not official NWS values.
T = Trace of Precipitation, MM = Missing Value Source: NWS Daily Summary

Daily Weather History Graph

Daily Weather History Graph

Search for Another Location

Airport or City:

Astronomy

Aug. 23, 2019 Rise Set
Actual Time 6:43 AM EDT 8:04 PM EDT
Civil Twilight 6:16 AM EDT 8:31 PM EDT
Nautical Twilight 5:43 AM EDT 9:04 PM EDT
Astronomical Twilight 5:08 AM EDT 9:38 PM EDT
Moon 12:01 AM EDT (8/23) 2:11 PM EDT (8/23)
Length of Visible Light 14h 15m
Length of Day
13h 20m
Waning Gibbous, 50% of the Moon is Illuminated
Aug 23
Waning Gibbous
Aug 30
New
Sep 5
First Quarter
Sep 14
Full
Sep 21
Last Quarter

Hourly Weather History & Observations

Time (EDT) Temp. Dew Point Humidity Pressure Visibility Wind Dir Wind Speed Gust Speed Precip Events Conditions
12:15 AM 66.4 °F 66.0 °F 99% 30.09 in 10.0 mi Calm Calm - N/A   Clear
12:35 AM 66.0 °F 65.5 °F 98% 30.09 in 2.5 mi Calm Calm - N/A   Clear
12:55 AM 66.9 °F 66.4 °F 98% 30.09 in 10.0 mi Calm Calm - N/A   Clear
1:15 AM 65.3 °F 64.8 °F 98% 30.09 in 7.0 mi Calm Calm - N/A   Clear
1:35 AM 64.9 °F 64.6 °F 99% 30.08 in 10.0 mi Calm Calm - N/A   Clear
1:55 AM 65.5 °F 64.8 °F 98% 30.08 in 10.0 mi Calm Calm - N/A   Clear
2:15 AM 66.0 °F 65.5 °F 98% 30.07 in 10.0 mi Calm Calm - N/A   Clear
2:35 AM 64.9 °F 64.4 °F 98% 30.08 in 7.0 mi Calm Calm - N/A   Clear
2:55 AM 64.8 °F 64.4 °F 99% 30.07 in 3.0 mi Calm Calm - N/A   Mostly Cloudy
3:15 AM 65.5 °F 64.9 °F 98% 30.07 in 10.0 mi Calm Calm - N/A   Mostly Cloudy
3:35 AM 65.5 °F 64.9 °F 98% 30.07 in 7.0 mi Calm Calm - N/A   Mostly Cloudy
3:55 AM 64.8 °F 64.2 °F 98% 30.07 in 10.0 mi Calm Calm - N/A   Overcast
4:15 AM 64.4 °F 63.9 °F 98% 30.07 in 7.0 mi Calm Calm - N/A   Overcast
4:35 AM 64.8 °F 64.4 °F 99% 30.07 in 10.0 mi Calm Calm - N/A   Overcast
4:55 AM 65.3 °F 64.6 °F 98% 30.07 in 10.0 mi Calm Calm - N/A   Overcast
5:15 AM 65.5 °F 64.9 °F 98% 30.07 in 7.0 mi Calm Calm - N/A   Overcast
5:35 AM 66.0 °F 65.5 °F 98% 30.07 in 3.0 mi Calm Calm - 0.01 in Rain Heavy Rain
5:55 AM 65.8 °F 65.3 °F 98% 30.07 in 7.0 mi Calm Calm - 0.01 in   Mostly Cloudy
6:15 AM 66.4 °F 66.2 °F 99% 30.08 in 10.0 mi Calm Calm - N/A   Mostly Cloudy
6:35 AM 66.2 °F 65.7 °F 98% 30.08 in 7.0 mi Calm Calm - N/A   Overcast
6:55 AM 65.7 °F 65.5 °F 99% 30.08 in 2.5 mi Calm Calm - N/A   Overcast
7:15 AM 66.2 °F 65.8 °F 99% 30.08 in 5.0 mi Calm Calm - N/A   Scattered Clouds
7:35 AM 66.2 °F 66.0 °F 99% 30.08 in 4.0 mi Calm Calm - N/A   Light Drizzle
7:55 AM 66.4 °F 66.2 °F 99% 30.08 in 5.0 mi Calm Calm - N/A   Scattered Clouds
8:15 AM 66.9 °F 66.4 °F 98% 30.09 in 7.0 mi Calm Calm - N/A   Mostly Cloudy
8:35 AM 67.5 °F 67.1 °F 99% 30.09 in 10.0 mi WSW 5.8 mph - N/A   Mostly Cloudy
8:55 AM 68.2 °F 67.3 °F 97% 30.09 in 10.0 mi WSW 5.8 mph - N/A   Mostly Cloudy
9:15 AM 68.2 °F 67.3 °F 97% 30.09 in 10.0 mi Calm Calm - N/A   Overcast
9:35 AM 68.9 °F 67.6 °F 96% 30.10 in 10.0 mi WSW 5.8 mph - N/A   Overcast
9:55 AM 69.3 °F 67.5 °F 94% 30.09 in 10.0 mi WSW 3.5 mph - N/A   Overcast
10:15 AM 69.6 °F 67.5 °F 93% 30.10 in 10.0 mi SW 3.5 mph - N/A   Overcast
10:35 AM 69.8 °F 67.5 °F 92% 30.10 in 10.0 mi SW 3.5 mph - N/A   Overcast
10:55 AM 70.3 °F 67.5 °F 91% 30.10 in 10.0 mi WSW 5.8 mph - N/A   Overcast
11:15 AM 72.0 °F 67.5 °F 86% 30.10 in 10.0 mi WSW 5.8 mph - N/A   Overcast
11:35 AM 72.7 °F 67.5 °F 84% 30.09 in 10.0 mi SW 5.8 mph - N/A   Overcast
11:55 AM 73.2 °F 67.1 °F 81% 30.10 in 10.0 mi SW 6.9 mph - N/A   Overcast
12:15 PM 73.9 °F 67.1 °F 79% 30.09 in 10.0 mi West 6.9 mph - N/A   Overcast
12:35 PM 71.2 °F 68.2 °F 90% 30.09 in 2.5 mi West 6.9 mph - N/A Rain Rain
12:55 PM 69.4 °F 68.4 °F 96% 30.10 in 1.8 mi West 5.8 mph - 0.11 in Rain Heavy Rain
1:15 PM 69.8 °F 68.4 °F 95% 30.08 in 7.0 mi WSW 4.6 mph - 0.01 in Rain Light Rain
1:35 PM 71.6 °F 69.6 °F 93% 30.09 in 10.0 mi WNW 3.5 mph - 0.01 in   Overcast
1:55 PM 72.7 °F 68.4 °F 86% 30.09 in 10.0 mi West 4.6 mph - 0.01 in   Overcast
2:15 PM 74.3 °F 68.9 °F 83% 30.09 in 10.0 mi West 3.5 mph - N/A   Mostly Cloudy
2:35 PM 74.5 °F 68.2 °F 81% 30.08 in 10.0 mi West 5.8 mph - N/A   Overcast
2:55 PM 75.9 °F 67.5 °F 75% 30.08 in 10.0 mi West 6.9 mph - N/A   Overcast
3:15 PM 76.1 °F 65.8 °F 70% 30.08 in 10.0 mi West 3.5 mph - N/A   Overcast
3:35 PM 77.4 °F 66.4 °F 69% 30.08 in 10.0 mi NW 5.8 mph - N/A   Mostly Cloudy
3:55 PM 79.5 °F 66.2 °F 64% 30.07 in 10.0 mi NNW 5.8 mph - N/A   Overcast
4:15 PM 77.5 °F 65.3 °F 66% 30.07 in 10.0 mi NNW 6.9 mph - N/A   Mostly Cloudy
4:35 PM 78.1 °F 65.3 °F 65% 30.06 in 10.0 mi WNW 8.1 mph - N/A   Scattered Clouds
4:55 PM 78.6 °F 66.2 °F 66% 30.07 in 10.0 mi WNW 9.2 mph - N/A   Clear
5:15 PM 78.1 °F 66.4 °F 67% 30.07 in 10.0 mi NNW 4.6 mph - N/A   Scattered Clouds
5:35 PM 77.4 °F 66.0 °F 68% 30.07 in 10.0 mi WNW 3.5 mph - N/A   Scattered Clouds
5:55 PM 76.8 °F 65.3 °F 67% 30.07 in 10.0 mi NNW 5.8 mph - N/A   Clear
6:15 PM 75.2 °F 63.3 °F 66% 30.08 in 10.0 mi NNW 6.9 mph - N/A   Clear
6:35 PM 72.5 °F 64.2 °F 75% 30.09 in 10.0 mi North 6.9 mph - N/A   Clear
6:55 PM 71.4 °F 63.7 °F 76% 30.09 in 10.0 mi North 6.9 mph - N/A   Clear
7:15 PM 69.8 °F 63.0 °F 79% 30.10 in 10.0 mi NNE 8.1 mph - N/A   Scattered Clouds
7:35 PM 68.5 °F 62.1 °F 80% 30.10 in 10.0 mi NNW 8.1 mph - N/A   Mostly Cloudy
7:55 PM 67.6 °F 61.9 °F 82% 30.10 in 10.0 mi North 5.8 mph - N/A   Mostly Cloudy
8:35 PM 66.2 °F 61.5 °F 85% 30.11 in 10.0 mi Calm Calm - N/A   Scattered Clouds
8:55 PM 65.7 °F 61.2 °F 85% 30.12 in 10.0 mi NNW 3.5 mph - N/A   Scattered Clouds
9:15 PM 65.3 °F 60.8 °F 85% 30.13 in 10.0 mi NNW 4.6 mph - N/A   Scattered Clouds
9:35 PM 65.3 °F 60.4 °F 84% 30.14 in 10.0 mi NNE 3.5 mph - N/A   Overcast
9:55 PM 65.3 °F 60.6 °F 85% 30.15 in 10.0 mi NNE 3.5 mph - N/A   Overcast
10:15 PM 64.9 °F 60.8 °F 86% 30.16 in 10.0 mi Calm Calm - N/A   Overcast
10:35 PM 64.6 °F 60.8 °F 88% 30.15 in 10.0 mi Calm Calm - N/A   Overcast
10:55 PM 64.4 °F 60.8 °F 88% 30.17 in 10.0 mi NNW 3.5 mph - N/A   Overcast
11:15 PM 64.4 °F 60.8 °F 88% 30.17 in 10.0 mi Calm Calm - N/A   Overcast
11:35 PM 64.0 °F 60.6 °F 89% 30.17 in 10.0 mi Calm Calm - N/A   Overcast
11:55 PM 63.9 °F 59.7 °F 86% 30.17 in 10.0 mi NE 4.6 mph - N/A   Overcast